(192307) = 1993 RM16 = 1998 SQ93

Discovered at La Silla on 1993-09-15 by H. Debehogne and E. W. Elst.

Orbit

Orbit type: Main Belt

Note: WebGL enabled browser required.

epoch2023-09-13.0
epoch JD2460200.5
perihelion date2018-11-08.94131
perihelion JD2458431.44131
argument of perihelion (°)217.36875
ascending node (°)171.10300
inclination (°)4.15055
eccentricity0.2154378
perihelion distance (AU)2.2844205
Tisserand w.r.t. Jupiter3.2
ΔV w.r.t. Earth (km/sec)9.6
semimajor axis (AU)2.9117136
mean anomaly (°)350.93211
mean daily motion (°/day)0.19837220
aphelion distance (AU)3.539
period (years)4.97
P-vector [x]0.87880609
P-vector [y]0.45341801
P-vector [z]0.14870094
Q-vector [x]-0.47704776
Q-vector [y]0.82750611
Q-vector [z]0.29607276
absolute magnitude16.21
phase slope0.15
uncertainty0
referenceMPEC 2024-B173
observations used593
oppositions15
arc length (days)11094
first opposition used1993
last opposition used2024
residual rms (arc-secs)0.67
perturbers coarse indicatorM-v
perturbers precise indicator003Ek
first observation date used1993-09-15.0
last observation date used2024-01-30.0
computer nameMPCLINUX
JD of orbit computation2456670.936977
perihelion JD uncertainty (days)1.2648E-04
argument of perihelion uncertainty (°)8.4256E-05
ascending node uncertainty (°)7.5506E-05
inclination uncertainty (°)1.1940E-05
eccentricity uncertainty 1.4248E-07
perihelion distance uncertainty (AU)4.0850E-07
Minimum Orbit Intersection Distances (in AU)
for orbit epoch: 2460200.5, reference: E2024-BH3
Mercury1.95114
Venus1.55995
Earth1.28996
Mars0.84461
Jupiter1.90628
Saturn6.10109
Uranus15.0177
Neptune27.1759

Observations

610 total observations over interval: 1993 09 15.25035 – 2024 01 30.119281
These data are available for download (format description).

Date (UT) J2000 RA J2000 Dec Magn Location Ref
1993 09 15.25035 00 05 17.24 -00 13 12.8 18.6   809 – European Southern Observatory, La Silla MPC 25294
1993 09 15.27118 00 05 16.40 -00 13 22.0   809 – European Southern Observatory, La Silla MPC 25294
1993 09 15.29201 00 05 15.52 -00 13 29.8   809 – European Southern Observatory, La Silla MPC 25294
1993 09 20.17796 00 01 52.55 -00 47 55.4 18.9 V 691 – Steward Observatory, Kitt Peak-Spacewatch MPC 25277
1993 09 20.21100 00 01 51.08 -00 48 09.9   691 – Steward Observatory, Kitt Peak-Spacewatch MPC 25277
1993 09 20.24328 00 01 49.65 -00 48 23.7   691 – Steward Observatory, Kitt Peak-Spacewatch MPC 25277
1993 09 22.22049 00 00 25.10 -01 02 19.5 18.7   809 – European Southern Observatory, La Silla MPC 25294
1993 09 22.24132 00 00 24.19 -01 02 29.1   809 – European Southern Observatory, La Silla MPC 25294
1993 09 22.26215 00 00 23.33 -01 02 37.5   809 – European Southern Observatory, La Silla MPC 25294
1993 09 23.31944 23 59 38.28 -01 10 16.4 19.0   675 – Palomar Mountain MPC 27800
1993 09 23.35747 23 59 36.57 -01 10 32.6   675 – Palomar Mountain MPC 27800
1998 09 26.20884 00 26 22.94 +01 00 54.7 18.8   704 – Lincoln Laboratory ETS, New Mexico MPS 2754
1998 09 26.22555 00 26 22.34 +01 00 47.7 18.8   704 – Lincoln Laboratory ETS, New Mexico MPS 2754
1998 09 26.24220 00 26 21.52 +01 00 38.9 19.1   704 – Lincoln Laboratory ETS, New Mexico MPS 2754
1998 09 26.25887 00 26 20.83 +01 00 34.5 19.3   704 – Lincoln Laboratory ETS, New Mexico MPS 2754
1998 09 26.27554 00 26 20.09 +01 00 25.6 19.4   704 – Lincoln Laboratory ETS, New Mexico MPS 2754
1998 09 27.31614 00 25 36.04 +00 53 05.1 19.4   704 – Lincoln Laboratory ETS, New Mexico MPS 2754
1998 09 27.33371 00 25 35.19 +00 52 56.2 19.8   704 – Lincoln Laboratory ETS, New Mexico MPS 2754
1998 09 27.35114 00 25 34.37 +00 52 47.5 19.5   704 – Lincoln Laboratory ETS, New Mexico MPS 2754
1998 09 27.36904 00 25 33.56 +00 52 42.2 19.5   704 – Lincoln Laboratory ETS, New Mexico MPS 2754
2003 09 18.47228 00 54 41.54 +03 55 20.7 18.9   644 – Palomar Mountain/NEAT MPS 84956
2003 09 18.49397 00 54 40.80 +03 55 12.6 18.5   644 – Palomar Mountain/NEAT MPS 84956
2003 09 18.51523 00 54 40.05 +03 55 04.7 18.7   644 – Palomar Mountain/NEAT MPS 84956
2003 09 19.30176 00 54 13.90 +03 50 09.5 19.0   704 – Lincoln Laboratory ETS, New Mexico MPS 84956
2003 09 19.32628 00 54 12.93 +03 50 00.4 18.9   704 – Lincoln Laboratory ETS, New Mexico MPS 84956
2003 09 19.33846 00 54 12.53 +03 49 56.2 19.6   704 – Lincoln Laboratory ETS, New Mexico MPS 84956
2003 09 19.56154 00 54 04.64 +03 48 32.9 20.5   608 – Haleakala-AMOS MPS 106634
2003 09 19.57255 00 54 04.24 +03 48 27.9 20.8   608 – Haleakala-AMOS MPS 106634
2003 09 19.58295 00 54 03.89 +03 48 23.0 21.1   608 – Haleakala-AMOS MPS 106634
2003 09 21.39455 00 52 59.97 +03 36 44.6 19.3 V 691 – Steward Observatory, Kitt Peak-Spacewatch MPS 84956
2003 09 21.42067 00 52 58.95 +03 36 34.4 19.3 V 691 – Steward Observatory, Kitt Peak-Spacewatch MPS 84956
2003 09 21.44731 00 52 57.94 +03 36 23.9 19.2 V 691 – Steward Observatory, Kitt Peak-Spacewatch MPS 84956
2003 09 25.50162 00 50 23.91 +03 09 20.5 19.7   608 – Haleakala-AMOS MPS 84956
2003 09 25.51214 00 50 23.45 +03 09 15.8 20.3   608 – Haleakala-AMOS MPS 84956
2003 09 25.52310 00 50 23.04 +03 09 11.4 20.2   608 – Haleakala-AMOS MPS 84956
2003 09 26.23354 00 49 55.13 +03 04 19.2 19.2   704 – Lincoln Laboratory ETS, New Mexico MPS 85977
2003 09 26.24605 00 49 54.57 +03 04 13.8 19.2   704 – Lincoln Laboratory ETS, New Mexico MPS 85977
2003 09 26.25898 00 49 53.96 +03 04 09.0 19.5   704 – Lincoln Laboratory ETS, New Mexico MPS 85977
2003 09 26.27135 00 49 53.48 +03 04 03.7 19.7   704 – Lincoln Laboratory ETS, New Mexico MPS 85977
2003 09 26.28400 00 49 52.96 +03 03 58.6 19.7   704 – Lincoln Laboratory ETS, New Mexico MPS 85977
2003 09 29.23323 00 47 52.40 +02 43 32.6 19.1   704 – Lincoln Laboratory ETS, New Mexico MPS 85977
2003 09 29.24580 00 47 51.83 +02 43 27.2 19.4   704 – Lincoln Laboratory ETS, New Mexico MPS 85977
2003 09 29.25890 00 47 51.29 +02 43 22.0 19.2   704 – Lincoln Laboratory ETS, New Mexico MPS 85977
2003 09 29.27142 00 47 50.74 +02 43 16.9 19.4   704 – Lincoln Laboratory ETS, New Mexico MPS 85977
2003 10 01.17212 00 46 31.07 +02 29 58.3 18.7 R 699 – Lowell Observatory-LONEOS MPS 86844
2003 10 01.18710 00 46 30.43 +02 29 52.9   699 – Lowell Observatory-LONEOS MPS 86844
2003 10 01.20208 00 46 29.74 +02 29 46.0   699 – Lowell Observatory-LONEOS MPS 86844
2003 10 01.21710 00 46 29.05 +02 29 39.2   699 – Lowell Observatory-LONEOS MPS 86844
2003 10 05.26012 00 43 36.24 +02 01 24.1 19.8 R 683 – Goodricke-Pigott Observatory, Tucson MPS 87257
2003 10 05.27353 00 43 35.63 +02 01 19.4 20.2 R 683 – Goodricke-Pigott Observatory, Tucson MPS 87257
2003 10 05.28694 00 43 35.14 +02 01 13.9 19.4 R 683 – Goodricke-Pigott Observatory, Tucson MPS 87257
2003 10 06.26570 00 42 53.05 +01 54 25.1 18.4 R 699 – Lowell Observatory-LONEOS MPS 86844
2003 10 06.28564 00 42 52.08 +01 54 18.4   699 – Lowell Observatory-LONEOS MPS 86844
2003 10 06.30547 00 42 51.19 +01 54 08.6   699 – Lowell Observatory-LONEOS MPS 86844
2003 10 06.32533 00 42 50.32 +01 54 01.1   699 – Lowell Observatory-LONEOS MPS 86844
2003 10 18.19851 00 34 44.61 +00 37 04.1 19.3 V 291 – LPL/Spacewatch II MPS 87537
2003 10 18.22159 00 34 43.71 +00 36 56.0 19.3 V 291 – LPL/Spacewatch II MPS 87537
2003 10 18.24475 00 34 42.78 +00 36 47.9 19.1 V 291 – LPL/Spacewatch II MPS 87537
2003 10 19.243210 00 34 05.818 +00 31 00.69 19.18 V 645 – Apache Point-Sloan Digital Sky Survey MPS 136816
2003 10 19.246682 00 34 05.685 +00 30 59.45 19.89   645 – Apache Point-Sloan Digital Sky Survey MPS 136816
2003 10 20.25865 00 33 29.15 +00 25 17.7 19.0   704 – Lincoln Laboratory ETS, New Mexico MPS 87537
2003 10 20.27065 00 33 28.66 +00 25 13.0 19.1   704 – Lincoln Laboratory ETS, New Mexico MPS 87537
2003 10 20.28248 00 33 28.27 +00 25 09.4 19.2   704 – Lincoln Laboratory ETS, New Mexico MPS 87537
2003 10 20.29411 00 33 27.84 +00 25 05.9 19.6   704 – Lincoln Laboratory ETS, New Mexico MPS 87537
2003 10 20.30579 00 33 27.35 +00 25 01.7 19.3   704 – Lincoln Laboratory ETS, New Mexico MPS 87537
2003 10 22.234280 00 32 20.804 +00 14 34.92 19.24 V 645 – Apache Point-Sloan Digital Sky Survey MPS 136816
2003 10 22.237752 00 32 20.680 +00 14 33.81 19.98   645 – Apache Point-Sloan Digital Sky Survey MPS 136816
2003 10 23.238580 00 31 47.588 +00 09 22.80 19.30 V 645 – Apache Point-Sloan Digital Sky Survey MPS 136816
2003 10 23.242052 00 31 47.468 +00 09 21.78 19.99   645 – Apache Point-Sloan Digital Sky Survey MPS 136816
2003 10 24.23038 00 31 15.94 +00 04 24.7 19.0   704 – Lincoln Laboratory ETS, New Mexico MPS 87537
2003 10 24.24338 00 31 15.45 +00 04 21.1 19.5   704 – Lincoln Laboratory ETS, New Mexico MPS 87537
2003 10 24.25659 00 31 15.02 +00 04 16.3 20.1   704 – Lincoln Laboratory ETS, New Mexico MPS 87537
2003 10 24.26976 00 31 14.63 +00 04 12.8 20.4   704 – Lincoln Laboratory ETS, New Mexico MPS 87537
2003 10 24.28241 00 31 14.12 +00 04 10.4 20.1   704 – Lincoln Laboratory ETS, New Mexico MPS 87537
2003 10 28.20761 00 29 21.04 -00 13 45.3 19.5   704 – Lincoln Laboratory ETS, New Mexico MPS 89194
2003 10 28.22020 00 29 20.60 -00 13 48.7 19.6   704 – Lincoln Laboratory ETS, New Mexico MPS 89194
2003 10 28.23400 00 29 20.29 -00 13 52.1 19.4   704 – Lincoln Laboratory ETS, New Mexico MPS 89194
2003 10 28.24726 00 29 19.84 -00 13 55.5 19.5   704 – Lincoln Laboratory ETS, New Mexico MPS 89194
2005 02 02.14847 09 23 25.89 +11 40 23.4 21.1 V 691 – Steward Observatory, Kitt Peak-Spacewatch MPS 125520
2005 02 02.17439 09 23 24.65 +11 40 29.8 20.8 V 691 – Steward Observatory, Kitt Peak-Spacewatch MPS 125520
2005 02 02.19987 09 23 23.32 +11 40 37.9 20.5 V 691 – Steward Observatory, Kitt Peak-Spacewatch MPS 125520
2005 03 04.12255 09 00 36.99 +14 03 23.3 21.0 V 691 – Steward Observatory, Kitt Peak-Spacewatch MPS 127066
2005 03 04.14188 09 00 36.32 +14 03 28.0 21.3 V 691 – Steward Observatory, Kitt Peak-Spacewatch MPS 127066
2005 03 04.15797 09 00 35.75 +14 03 31.9 21.4 V 691 – Steward Observatory, Kitt Peak-Spacewatch MPS 127066
